TimeCDT,TemperatureF,Dew PointF,Humidity,Sea Level PressureIn,VisibilityMPH,Wind Direction,Wind SpeedMPH,Gust SpeedMPH,PrecipitationIn,Events,Conditions,WindDirDegrees,DateUTC
12:53 AM,48.9,25.0,39,29.94,10.0,North,18.4,-,N/A,,Clear,350,2011-10-30 05:53:00
1:53 AM,48.9,26.1,41,29.98,10.0,North,23.0,31.1,N/A,,Clear,350,2011-10-30 06:53:00
2:53 AM,48.9,30.0,48,30.00,10.0,NNW,20.7,-,N/A,,Clear,340,2011-10-30 07:53:00
3:53 AM,46.0,30.0,54,30.02,10.0,NNW,11.5,-,N/A,,Clear,330,2011-10-30 08:53:00
4:53 AM,44.1,30.0,58,30.05,10.0,NW,6.9,-,N/A,,Clear,310,2011-10-30 09:53:00
5:53 AM,43.0,28.9,58,30.09,10.0,NW,6.9,-,N/A,,Clear,320,2011-10-30 10:53:00
7:53 AM,39.0,28.9,67,30.15,10.0,WNW,5.8,-,N/A,,Clear,300,2011-10-30 12:53:00
9:53 AM,44.1,30.0,58,30.21,10.0,WNW,8.1,-,N/A,,Clear,300,2011-10-30 14:53:00
10:53 AM,50.0,30.9,48,30.21,10.0,WNW,8.1,-,N/A,,Clear,300,2011-10-30 15:53:00
11:53 AM,54.0,30.0,40,30.20,10.0,NNW,10.4,-,N/A,,Clear,340,2011-10-30 16:53:00
12:53 PM,57.9,27.0,31,30.19,10.0,West,15.0,23.0,N/A,,Clear,280,2011-10-30 17:53:00
1:53 PM,60.1,28.0,30,30.15,10.0,West,17.3,24.2,N/A,,Clear,270,2011-10-30 18:53:00
2:53 PM,61.0,26.1,26,30.13,10.0,WNW,11.5,24.2,N/A,,Clear,290,2011-10-30 19:53:00
3:53 PM,62.1,25.0,24,30.12,10.0,West,18.4,25.3,N/A,,Clear,270,2011-10-30 20:53:00
4:53 PM,62.1,25.0,24,30.11,10.0,WNW,19.6,27.6,N/A,,Clear,290,2011-10-30 21:53:00
6:53 PM,53.1,27.0,37,30.12,10.0,WNW,4.6,-,N/A,,Clear,300,2011-10-30 23:53:00
7:53 PM,46.9,27.0,46,30.15,10.0,Calm,Calm,-,N/A,,Clear,0,2011-10-31 00:53:00
8:53 PM,43.0,27.0,53,30.15,10.0,Calm,Calm,-,N/A,,Clear,0,2011-10-31 01:53:00
9:53 PM,37.0,27.0,67,30.16,10.0,WNW,3.5,-,N/A,,Clear,290,2011-10-31 02:53:00
10:53 PM,37.9,27.0,65,30.15,10.0,Calm,Calm,-,N/A,,Clear,0,2011-10-31 03:53:00
11:53 PM,34.0,26.1,73,30.14,10.0,West,3.5,-,N/A,,Clear,260,2011-10-31 04:53:00